Weather History for KADF - May, 2014

Change the Weather History Date:

Saturday, May 17, 2014

  Actual Average Record
Temperature  
Mean Temperature 62 °F -  
Max Temperature 70 °F - - ()
Min Temperature 54 °F - - ()
Degree Days  
Heating Degree Days 3    
Growing Degree Days 12 (Base 50)    
Moisture  
Dew Point 53 °F    
Average Humidity 75    
Maximum Humidity 88    
Minimum Humidity 55    
Precipitation  
Precipitation 0.00 in - - ()
Sea Level Pressure  
Sea Level Pressure 30.14 in    
Wind  
Wind Speed 7 mph (NE)    
Max Wind Speed 13 mph    
Max Gust Speed -    
Visibility 10 miles    
Events      
T = Trace of Precipitation, MM = Missing Value Source: NWS Daily Summary

Daily Weather History Graph

Daily Weather History Graph

Search for Another Location

Airport or City:

Trip Planner

Search our weather history database for the weather conditions in past years. The results will help you decide how hot, cold, wet, or windy it might be!

Date:

Astronomy

May. 17, 2014 Rise Set
Actual Time 6:09 AM CDT 8:08 PM CDT
Civil Twilight 5:41 AM CDT 8:36 PM CDT
Nautical Twilight 5:07 AM CDT 9:10 PM CDT
Astronomical Twilight 4:31 AM CDT 9:46 PM CDT
Moon 11:10 PM CDT (5/17) 8:52 AM CDT (5/17)
Length of Visible Light 14h 55m
Length of Day
13h 59m
Waning Gibbous, 89% of the Moon is Illuminated
May 17
Waning Gibbous
May 21
Last Quarter
May 28
New
Jun 5
First Quarter
Jun 12
Full

Hourly Weather History & Observations

Time (CDT) Temp. Dew Point Humidity Pressure Visibility Wind Dir Wind Speed Gust Speed Precip Events Conditions
12:56 AM 59.9 °F 52.0 °F 75% 30.08 in 10.0 mi NE 5.8 mph - N/A   Partly Cloudy
1:56 AM 59.9 °F 52.0 °F 75% 30.08 in 10.0 mi Variable 4.6 mph - N/A   Mostly Cloudy
2:56 AM 57.9 °F 50.9 °F 77% 30.09 in 10.0 mi NE 4.6 mph - N/A   Clear
3:56 AM 57.9 °F 50.0 °F 75% 30.12 in 10.0 mi NE 11.5 mph - N/A   Clear
4:56 AM 56.8 °F 46.9 °F 69% 30.14 in 10.0 mi NE 12.7 mph - N/A   Clear
5:56 AM 54.9 °F 47.8 °F 77% 30.14 in 10.0 mi Variable 5.8 mph - N/A   Clear
6:56 AM 54.0 °F 48.9 °F 83% 30.16 in 10.0 mi East 3.5 mph - N/A   Clear
7:56 AM 56.8 °F 50.0 °F 78% 30.14 in 10.0 mi East 4.6 mph - N/A   Clear
8:56 AM 59.0 °F 50.9 °F 74% 30.14 in 10.0 mi East 4.6 mph - N/A   Clear
9:56 AM 61.0 °F 52.0 °F 72% 30.14 in 10.0 mi Variable 5.8 mph - N/A   Clear
10:56 AM 63.9 °F 52.9 °F 67% 30.14 in 10.0 mi Variable 4.6 mph - N/A   Partly Cloudy
11:56 AM 66.9 °F 54.0 °F 63% 30.14 in 10.0 mi Variable 4.6 mph - N/A   Scattered Clouds
12:56 PM 68.9 °F 52.0 °F 55% 30.13 in 10.0 mi Calm Calm - N/A   Clear
1:56 PM 70.0 °F 55.9 °F 61% 30.13 in 10.0 mi Variable 5.8 mph - N/A   Clear
2:56 PM 70.9 °F 57.9 °F 63% 30.12 in 10.0 mi NE 11.5 mph - N/A   Partly Cloudy
3:56 PM 65.8 °F 56.8 °F 73% 30.13 in 10.0 mi NE 11.5 mph - N/A   Scattered Clouds
4:56 PM 66.9 °F 56.8 °F 70% 30.12 in 10.0 mi NNE 11.5 mph - N/A   Clear
5:56 PM 63.9 °F 55.9 °F 75% 30.14 in 10.0 mi NNE 12.7 mph - N/A   Clear
6:56 PM 63.0 °F 55.9 °F 78% 30.14 in 10.0 mi NE 8.1 mph - N/A   Clear
7:38 PM 62.6 °F 55.4 °F 77% 30.10 in 10.0 mi NE 8.1 mph - N/A   Mostly Cloudy
7:56 PM 61.9 °F 55.9 °F 81% 30.14 in 10.0 mi ENE 6.9 mph - N/A   Overcast
8:56 PM 61.0 °F 54.9 °F 80% 30.16 in 10.0 mi NE 6.9 mph - N/A   Mostly Cloudy
9:12 PM 60.8 °F 55.4 °F 82% 30.12 in 10.0 mi Variable 5.8 mph - N/A   Mostly Cloudy
9:37 PM 60.8 °F 55.4 °F 82% 30.13 in 10.0 mi ENE 6.9 mph - N/A   Mostly Cloudy
9:56 PM 59.9 °F 54.9 °F 83% 30.19 in 10.0 mi NE 4.6 mph - N/A   Overcast
10:44 PM 59.0 °F 55.4 °F 88% 30.15 in 10.0 mi NE 6.9 mph - N/A   Scattered Clouds
10:56 PM 59.0 °F 54.9 °F 86% 30.19 in 10.0 mi NE 5.8 mph - N/A   Scattered Clouds
11:56 PM 57.9 °F 52.9 °F 83% 30.19 in 10.0 mi ENE 5.8 mph - N/A   Clear